Terminal Aerodrome Forecast
Issued by NWS

Home | Current Version | Previous Version | Text Only | Print | Product List | Glossary On
Versions: 1 2 3 4 5 6 7 8 9 10 11 12 13 14 15 16 17 18
390
FTUS45 KMSO 131605 AAB
TAFSMN
TAF AMD
KSMN 131605Z 1316/1412 21008KT 2SM -SN BKN009 BKN030 OVC050
     FM131630 33011G17KT P6SM VCSH BKN050
     FM140100 32006KT P6SM BKN050
      AMD LTD TO CLD VIS AND WIND=

USA.gov is the U.S. government's official web portal to all federal, state and local government web resources and services.